Location: Unspecified
(38.7273°N, 77.0677°W)
Time: 01:14:16
(UTC-04:00)

ISS - Visible Passes

Search period start: 22 June 2021 00:00
Search period end: 02 July 2021 00:00
Orbit: 417 x 422 km, 51.6° (Epoch: 21 June)

Date Brightness Start Highest point End Pass type
(mag) Time Alt. Az. Time Alt. Az. Time Alt. Az.
24 Jun -2.1 05:09:56 10° SSW 05:12:50 27° SE 05:15:43 10° ENE visible
25 Jun -1.4 04:23:26 10° SSE 04:25:31 16° SE 04:27:36 10° E visible
26 Jun -3.7 05:11:12 10° SW 05:14:33 90° SSE 05:17:55 10° NE visible
27 Jun -3.2 04:25:18 22° SSW 04:27:08 49° SE 04:30:24 10° ENE visible
28 Jun -2.4 03:39:40 27° SE 03:39:46 27° SE 03:42:40 10° ENE visible
29 Jun -1.0 02:53:59 12° E 02:53:59 12° E 02:54:34 10° E visible
29 Jun -3.2 04:26:56 21° WSW 04:28:57 51° NW 04:32:16 10° NE visible
30 Jun -3.9 03:41:11 73° SW 03:41:28 90° NNW 03:44:51 10° NE visible
30 Jun -1.3 05:16:24 10° WNW 05:18:40 17° NNW 05:20:57 10° NNE visible
01 Jul -2.1 02:55:22 29° ENE 02:55:22 29° ENE 02:57:18 10° ENE visible
01 Jul -1.7 04:28:19 10° W 04:31:01 22° NNW 04:33:44 10° NNE visible
